Location: Unspecified
(43.4680°N, 87.1740°E)
Time: 21:34:40
(UTC+00:00)

COSMOS 2428 - Pass Details

Date: 17 April 2021
Orbit: 844 x 859 km, 70.9° (Epoch: 12 May)

Event Time Altitude Azimuth Distance (km) Brightness Sun altitude
Rises 15:45:31 0° 324° (NW) 3,441 7.2 -26.5°
Reaches altitude 10° 15:48:19 10° 313° (NW) 2,500 6.1 -26.9°
Maximum altitude 15:53:01 27° 257° (WSW) 1,601 4.3 -27.4°
Enters shadow 15:54:59 22° 226° (SW) 1,789 4.3 -27.6°
